Regional Weather Roundup
Issued by NWS Columbia, SC

Home | Current Version | Previous Version | Text Only | Print | Product List | Glossary On
Versions: 1 2 3 4 5 6 7 8 9 10 11 12 13 14 15 16 17 18 19 20 21 22 23 24 25 26 27 28
000
ASUS42 KCAE 261110
RWRCAE
REGIONAL WEATHER ROUNDUP
NATIONAL WEATHER SERVICE COLUMBIA SC
600 AM EST SUN FEB 26 2017

NOTE: "FAIR" INDICATES FEW OR NO CLOUDS BELOW 12,000 FEET WITH NO
SIGNIFICANT WEATHER AND/OR OBSTRUCTIONS TO VISIBILITY.

NOT ALL STATIONS ARE QUALITY CONTROLLED BY THE NATIONAL
WEATHER SERVICE. USE DATA WITH CAUTION...ESPECIALLY
DEWPOINT OBSERVATIONS.

SCZ001>056-GAZ040-063>065-077-261200-
...UPSTATE SOUTH CAROLINA...

CITY           SKY/WX    TMP DP  RH WIND       PRES   REMARKS
ANDERSON       CLEAR     36  18  48 W5        30.10R WCI  32
LIBERTY        SUNNY     27  20  74 CALM      30.08R
SPARTANBURG    CLEAR     36  18  48 N5        30.09R WCI  32
CLEMSON        CLEAR     37  15  40 W6        30.10R WCI  32
GREENVILLE     CLEAR     35  20  54 N7        30.09R WCI  29
GREENWOOD      CLEAR     31  22  69 CALM      30.12R
GREER          CLEAR     34  18  52 CALM      30.08R
ROCK HILL      CLEAR     30  20  66 N5        30.09R WCI  25
CHESTER        SUNNY     36  18  48 NW7       30.10R WCI  30
LAURENS        SUNNY     32  23  69 CALM      30.10R


...CENTRAL SOUTH CAROLINA...

CITY           SKY/WX    TMP DP  RH WIND       PRES   REMARKS
COLUMBIA APT   CLEAR     37  27  67 CALM      30.10R
COLUMBIA OWENS CLEAR     43  23  45 CALM      30.11R
MCENTIRE ANGB  CLEAR     39  22  49 NW3       30.10R
ORANGEBURG     CLEAR     44  24  45 NW5       30.10R
SUMTER SHAW    CLEAR     42  20  41 NW7       30.07R
AIKEN          FAIR      36  23  60 W3        30.13R
BARNWELL       FAIR      37  28  70 CALM      30.12R
MANNING        FAIR      37  27  65 MISG      30.10R
CAMDEN         FAIR      37  25  60 CALM      30.10R
LANCASTER      SUNNY     37  16  41 NW3       30.10R
WINNSBORO      SUNNY     34  25  69 N5        30.08R WCI  30


...EASTERN AND COASTAL SOUTH CAROLINA...

CITY           SKY/WX    TMP DP  RH WIND       PRES   REMARKS
MYRTLE BEACH   CLEAR     46  27  46 NW7       30.09R
N MYRTLE BCH   CLEAR     46  29  51 NW3       30.07R
CONWAY         FAIR      37  32  81 CALM      30.09R
MARION         FAIR      41  23  48 N5        30.08R
HARTSVILLE     FAIR      36  23  60 N3        30.08R
FLORENCE       CLEAR     42  18  37 NW6       30.09R
DARLINGTON     CLEAR     40  21  46 NW6       30.10R
CHARLESTON APT CLEAR     46  24  42 NW7       30.09R
MOUNT PLEASANT LGT RAIN  48  28  46 NW6       30.09R
WALTERBORO     SUNNY     43  27  52 W5        30.12R
BEAUFORT       CLEAR     46  27  47 NW5       30.11R


...EASTERN GEORGIA...

CITY           SKY/WX    TMP DP  RH WIND       PRES   REMARKS
AUGUSTA BUSH F CLEAR     37  25  61 CALM      30.12R
AUGUSTA DANIEL CLEAR     43  19  38 NW7       30.12R
THOMSON        CLEAR     37  28  69 CALM      30.16R
WASHINGTON     FAIR      39  27  60 NW5       30.11R
CLAXTON        FAIR     N/A N/A N/A CALM      30.14R
SYLVANIA       SUNNY    N/A N/A N/A N3        30.12R
STATESBORO     CLEAR     41  31  68 N3        30.12R
SAVANNAH       CLEAR     47  24  40 NW8       30.12R


...SOUTHERN NORTH CAROLINA...

CITY           SKY/WX    TMP DP  RH WIND       PRES   REMARKS
CHARLOTTE      PTCLDY    35  18  49 NW5       30.09R WCI  31
MONROE         CLEAR     35  20  54 NW5       30.08R WCI  31
WADESBORO      SUNNY     37  17  44 CALM      30.09R
ROCKINGHAM     SUNNY     39  21  48 CALM      30.08R
RUTHERFORDTON  CLEAR     28  21  73 N3        30.09R
ASHEVILLE      CLEAR     29  16  58 N14G24    30.08R WCI  18

$$




USA.gov is the U.S. government's official web portal to all federal, state and local government web resources and services.